TimePDT,TemperatureF,Dew PointF,Humidity,Sea Level PressureIn,VisibilityMPH,Wind Direction,Wind SpeedMPH,Gust SpeedMPH,PrecipitationIn,Events,Conditions,WindDirDegrees,DateUTC
12:56 AM,59.0,57.9,96,29.98,3.0,Variable,4.6,-,N/A,,Scattered Clouds,0,2013-09-03 07:56:00
1:56 AM,59.0,57.9,96,29.99,10.0,Calm,Calm,-,N/A,,Overcast,0,2013-09-03 08:56:00
2:24 AM,57.2,57.2,100,29.99,10.0,East,3.5,-,N/A,,Overcast,80,2013-09-03 09:24:00
2:45 AM,57.2,57.2,100,29.98,9.0,ESE,3.5,-,N/A,,Scattered Clouds,110,2013-09-03 09:45:00
2:56 AM,57.9,56.8,96,29.98,10.0,Calm,Calm,-,N/A,,Partly Cloudy,0,2013-09-03 09:56:00
3:56 AM,57.9,56.8,96,29.98,10.0,Calm,Calm,-,N/A,,Clear,0,2013-09-03 10:56:00
4:56 AM,56.8,55.9,97,29.98,10.0,Variable,3.5,-,N/A,,Clear,0,2013-09-03 11:56:00
5:40 AM,55.4,55.4,100,29.98,8.0,Variable,4.6,-,N/A,,Partly Cloudy,0,2013-09-03 12:40:00
5:56 AM,55.9,55.9,100,29.99,9.0,Variable,4.6,-,N/A,,Partly Cloudy,0,2013-09-03 12:56:00
6:56 AM,55.9,54.9,96,30.00,10.0,Variable,3.5,-,N/A,,Clear,0,2013-09-03 13:56:00
7:56 AM,56.8,54.9,93,30.01,10.0,East,4.6,-,N/A,,Clear,100,2013-09-03 14:56:00
8:56 AM,59.0,55.9,90,30.01,10.0,Variable,4.6,-,N/A,,Clear,0,2013-09-03 15:56:00
9:56 AM,64.9,56.8,75,30.02,10.0,Variable,4.6,-,N/A,,Clear,0,2013-09-03 16:56:00
10:56 AM,66.9,55.9,68,30.03,10.0,SSW,6.9,-,N/A,,Clear,210,2013-09-03 17:56:00
11:56 AM,66.9,55.9,68,30.04,10.0,WSW,6.9,-,N/A,,Clear,240,2013-09-03 18:56:00
12:56 PM,68.0,57.9,70,30.04,10.0,SSW,5.8,-,N/A,,Clear,210,2013-09-03 19:56:00
1:56 PM,68.9,57.9,68,30.05,10.0,South,8.1,-,N/A,,Clear,170,2013-09-03 20:56:00
2:56 PM,65.8,59.0,79,30.05,10.0,Variable,4.6,-,N/A,,Clear,0,2013-09-03 21:56:00
3:56 PM,66.9,59.0,76,30.04,10.0,WSW,4.6,-,N/A,,Clear,240,2013-09-03 22:56:00
4:56 PM,66.9,59.0,76,30.04,10.0,Variable,4.6,-,N/A,,Partly Cloudy,0,2013-09-03 23:56:00
5:56 PM,66.9,59.9,78,30.04,10.0,West,4.6,-,N/A,,Clear,270,2013-09-04 00:56:00
6:56 PM,64.9,59.9,84,30.02,9.0,Calm,Calm,-,N/A,,Clear,0,2013-09-04 01:56:00
7:56 PM,61.9,59.9,93,30.03,10.0,Calm,Calm,-,N/A,,Clear,0,2013-09-04 02:56:00
8:56 PM,59.9,59.0,97,30.04,10.0,NE,3.5,-,N/A,,Clear,40,2013-09-04 03:56:00
9:56 PM,59.0,57.9,96,30.04,10.0,Calm,Calm,-,N/A,,Clear,0,2013-09-04 04:56:00
10:56 PM,57.9,56.8,96,30.04,10.0,ENE,3.5,-,N/A,,Clear,60,2013-09-04 05:56:00
11:56 PM,56.8,55.9,97,30.04,10.0,Calm,Calm,-,N/A,,Clear,0,2013-09-04 06:56:00